| time (UTC) | temp F | wind direction | speed MPH | gust MPH | rain 1hr in | rain 24hr in | rain mn in | humidity % | barometer mb |
| 20260508060003 | 46 | 270 | 5.0 | 5.0 | 0.00 | 1.44 | 0.00 | 61 | 1070.4 |
| 20260508055503 | 45 | 270 | 5.0 | 5.0 | 0.00 | 1.44 | 0.00 | 61 | 1076.6 |
| 20260508055003 | 58 | 285 | 3.0 | 5.0 | 0.00 | 1.44 | 0.00 | 59 | 1067.0 |
| 20260508054503 | 57 | 293 | 5.0 | 5.0 | 0.00 | 1.44 | 0.00 | 58 | 1096.1 |
| 20260508054003 | 55 | 293 | 5.0 | 5.0 | 0.00 | 1.44 | 0.00 | 58 | 1096.1 |
| 20260508053503 | 53 | 293 | 5.0 | 5.0 | 0.00 | 1.44 | 0.00 | 58 | 1096.1 |
| 20260508053004 | 51 | 293 | 5.0 | 5.0 | 0.00 | 1.44 | 0.00 | 58 | 1096.1 |
| 20260508052503 | 49 | 293 | 5.0 | 5.0 | 0.00 | 1.44 | 0.00 | 58 | 1076.9 |
| 20260508051003 | 53 | 270 | 5.0 | 5.0 | 0.00 | 1.44 | 0.00 | 54 | 1097.0 |
| 20260508050503 | 51 | 270 | 5.0 | 5.0 | 0.00 | 1.44 | 0.00 | 54 | 1096.3 |
| 20260508045503 | 47 | 270 | 3.0 | 6.0 | 0.00 | 1.44 | 0.00 | 54 | 1021.9 |
| 20260508045003 | 47 | 271 | 2.0 | 6.0 | 0.00 | 1.44 | 0.00 | 54 | 1091.3 |
| 20260508044503 | 49 | 293 | 5.0 | 5.0 | 0.00 | 1.44 | 0.00 | 54 | 1076.9 |
| 20260508044004 | 47 | 293 | 2.0 | 5.0 | 0.00 | 1.44 | 0.00 | 54 | 1025.4 |
| 20260508043503 | 56 | 270 | 0.0 | 0.0 | 0.00 | 1.44 | 0.00 | 54 | 1090.0 |
| 20260508043003 | 55 | 270 | 0.0 | 0.0 | 0.00 | 1.44 | 0.00 | 54 | 1090.0 |
| 20260508042503 | 53 | 270 | 0.0 | 0.0 | 0.00 | 1.44 | 0.00 | 54 | 1090.1 |
| 20260508041504 | 49 | 270 | 0.0 | 0.0 | 0.00 | 1.44 | 0.00 | 54 | 1060.0 |
| 20260508041004 | 49 | 248 | 0.0 | 0.0 | 0.00 | 1.44 | 0.00 | 53 | 1073.6 |
| 20260508040503 | 54 | 288 | 0.0 | 0.0 | 0.00 | 1.44 | 0.00 | 53 | 1093.2 |
| 20260508040004 | 52 | 293 | 0.0 | 0.0 | 0.00 | 1.44 | 0.00 | 53 | 1093.2 |
| 20260508035503 | 50 | 293 | 0.0 | 0.0 | 0.00 | 1.44 | 1.44 | 53 | 1092.8 |
| 20260508035003 | 48 | 293 | 0.0 | 0.0 | 0.00 | 1.44 | 1.44 | 53 | 1020.3 |
| 20260508034503 | 48 | 270 | 0.0 | 0.0 | 0.00 | 1.44 | 1.44 | 52 | 1026.5 |
| 20260508034004 | 49 | 270 | 0.0 | 0.0 | 0.00 | 1.44 | 1.44 | 51 | 1027.6 |
| 20260508033503 | 49 | 270 | 0.0 | 0.0 | 0.00 | 1.44 | 1.44 | 51 | 1026.5 |
| 20260508033003 | 49 | 293 | 0.0 | 9.0 | 0.00 | 1.44 | 1.44 | 50 | 1034.9 |
| 20260508032503 | 49 | 270 | 5.0 | 9.0 | 0.00 | 1.44 | 1.44 | 50 | 1026.1 |
| 20260508032003 | 48 | 293 | 5.0 | 9.0 | 0.00 | 1.44 | 1.44 | 50 | 1036.0 |
| 20260508031503 | 50 | 203 | 9.0 | 9.0 | 0.00 | 1.44 | 1.44 | 50 | 1076.9 |
| 20260508031003 | 50 | 312 | 7.0 | 9.0 | 0.00 | 1.44 | 1.44 | 50 | 1050.7 |
| 20260508030503 | 49 | 283 | 8.0 | 9.0 | 0.00 | 1.44 | 1.44 | 50 | 1076.9 |
| 20260508030003 | 50 | 257 | 8.0 | 9.0 | 0.00 | 1.44 | 1.44 | 50 | 1093.3 |
| 20260508025503 | 49 | 248 | 9.0 | 9.0 | 0.00 | 1.44 | 1.44 | 50 | 1026.1 |
| 20260508024504 | 54 | 270 | 3.0 | 3.0 | 0.00 | 1.44 | 1.44 | 48 | 1091.6 |
| 20260508024004 | 52 | 270 | 3.0 | 3.0 | 0.00 | 1.44 | 1.44 | 48 | 1076.2 |
| 20260508023503 | 50 | 270 | 2.0 | 3.0 | 0.00 | 1.44 | 1.44 | 48 | 1042.2 |
| 20260508023003 | 55 | 270 | 3.0 | 3.0 | 0.00 | 1.44 | 1.44 | 48 | 1080.6 |
| 20260508022503 | 53 | 270 | 3.0 | 3.0 | 0.00 | 1.44 | 1.44 | 48 | 1075.9 |
| 20260508021503 | 83 | 270 | 2.0 | 3.0 | 0.00 | 1.44 | 1.44 | 49 | 1091.2 |
| 20260508020503 | 79 | 270 | 3.0 | 3.0 | 0.00 | 1.44 | 1.44 | 51 | 1091.2 |
| 20260508020004 | 77 | 270 | 3.0 | 3.0 | 0.00 | 1.44 | 1.44 | 51 | 1091.2 |
| 20260508015503 | 75 | 270 | 3.0 | 3.0 | 0.00 | 1.44 | 1.44 | 51 | 1091.2 |
| 20260508014503 | 72 | 270 | 3.0 | 3.0 | 0.00 | 1.44 | 1.44 | 51 | 1091.2 |
| 20260508014003 | 70 | 270 | 3.0 | 3.0 | 0.00 | 1.44 | 1.44 | 51 | 1091.2 |
| 20260508013504 | 68 | 270 | 3.0 | 3.0 | 0.00 | 1.44 | 1.44 | 51 | 1091.2 |
| 20260508013003 | 66 | 270 | 3.0 | 3.0 | 0.00 | 1.44 | 1.44 | 51 | 1091.2 |
| 20260508012501 | 64 | 270 | 3.0 | 3.0 | 1.20 | 1.44 | 1.44 | 51 | 1091.2 |
| 20260508012002 | 62 | 270 | 3.0 | 3.0 | 7.20 | 1.44 | 1.44 | 51 | 1091.2 |
| 20260508011501 | 60 | 270 | 3.0 | 3.0 | 9.99 | 1.44 | 1.44 | 51 | 1091.2 |
| 20260508011001 | 58 | 270 | 3.0 | 3.0 | 9.99 | 1.44 | 1.44 | 51 | 1091.2 |
| 20260508010001 | 54 | 270 | 3.0 | 3.0 | 9.99 | 1.44 | 1.44 | 51 | 1091.2 |
| 20260508005501 | 52 | 270 | 3.0 | 3.0 | 9.99 | 1.44 | 1.44 | 51 | 1039.6 |
| 20260508005001 | 59 | 270 | 2.0 | 2.0 | 9.99 | 1.44 | 1.44 | 49 | 1092.9 |
| 20260508004501 | 57 | 270 | 2.0 | 2.0 | 9.99 | 1.44 | 1.44 | 49 | 1092.9 |
| 20260508004001 | 55 | 270 | 2.0 | 2.0 | 9.99 | 1.44 | 1.44 | 49 | 1092.9 |
| 20260508003502 | 53 | 270 | 1.0 | 2.0 | 9.99 | 1.44 | 1.44 | 49 | 1033.0 |
| 20260508003001 | 54 | 270 | 1.0 | 2.0 | 9.99 | 1.44 | 1.44 | 49 | 1042.1 |
| 20260508002502 | 57 | 293 | 2.0 | 2.0 | 9.99 | 1.32 | 1.32 | 47 | 1085.8 |
| 20260508002002 | 55 | 293 | 2.0 | 2.0 | 6.96 | 7.20 | 7.20 | 47 | 1079.3 |
| 20260508001501 | 54 | 293 | 6.0 | 12.0 | 0.96 | 1.20 | 1.20 | 47 | 1075.6 |
| 20260508001002 | 88 | 287 | 6.0 | 12.0 | 0.00 | 0.24 | 0.24 | 47 | 1062.5 |
| 20260508000501 | 87 | 270 | 12.0 | 12.0 | 0.00 | 0.24 | 0.24 | 41 | 1087.8 |
| 20260508000002 | 85 | 270 | 12.0 | 12.0 | 0.00 | 0.24 | 0.24 | 41 | 1087.8 |
| 20260507235501 | 83 | 270 | 12.0 | 12.0 | 0.00 | 0.24 | 0.24 | 41 | 1087.8 |
| 20260507235002 | 81 | 270 | 12.0 | 12.0 | 0.00 | 0.24 | 0.24 | 41 | 1087.8 |
| 20260507234502 | 79 | 270 | 12.0 | 12.0 | 0.00 | 0.24 | 0.24 | 41 | 1087.8 |
| 20260507234002 | 77 | 270 | 12.0 | 12.0 | 0.00 | 0.24 | 0.24 | 41 | 1087.8 |
| 20260507233501 | 75 | 270 | 12.0 | 12.0 | 0.00 | 0.24 | 0.24 | 41 | 1087.8 |
| 20260507233001 | 73 | 270 | 12.0 | 12.0 | 0.00 | 0.24 | 0.24 | 41 | 1087.8 |
| 20260507232502 | 71 | 270 | 12.0 | 12.0 | 0.00 | 0.24 | 0.24 | 41 | 1087.8 |
| 20260507232002 | 69 | 270 | 12.0 | 12.0 | 0.00 | 0.24 | 0.24 | 41 | 1087.7 |
| 20260507231502 | 67 | 270 | 12.0 | 12.0 | 0.00 | 0.24 | 0.24 | 41 | 1087.8 |
| 20260507231001 | 65 | 270 | 12.0 | 12.0 | 0.00 | 0.24 | 0.24 | 41 | 1087.6 |
| 20260507230502 | 63 | 270 | 12.0 | 12.0 | 0.00 | 0.24 | 0.24 | 41 | 1088.2 |
| 20260507230002 | 61 | 270 | 12.0 | 12.0 | 0.00 | 0.24 | 0.24 | 41 | 1086.3 |
| 20260507225501 | 60 | 270 | 10.0 | 12.0 | 0.00 | 0.24 | 0.24 | 41 | 1088.9 |
| 20260507225001 | 58 | 270 | 8.0 | 12.0 | 0.00 | 0.24 | 0.24 | 41 | 1026.9 |
| 20260507224502 | 67 | 248 | 12.0 | 12.0 | 0.00 | 0.24 | 0.24 | 39 | 1092.9 |
| 20260507224002 | 65 | 248 | 12.0 | 12.0 | 0.00 | 0.24 | 0.24 | 39 | 1092.9 |
| 20260507223501 | 63 | 248 | 12.0 | 12.0 | 0.00 | 0.24 | 0.24 | 39 | 1092.1 |
| 20260507223002 | 61 | 248 | 12.0 | 12.0 | 0.00 | 0.24 | 0.24 | 39 | 1074.2 |
| 20260507222502 | 68 | 248 | 8.0 | 12.0 | 0.00 | 0.24 | 0.24 | 39 | 1021.6 |
| 20260507221501 | 71 | 270 | 12.0 | 12.0 | 0.00 | 0.24 | 0.24 | 41 | 1088.8 |
| 20260507221002 | 69 | 270 | 12.0 | 12.0 | 0.00 | 0.24 | 0.24 | 41 | 1088.8 |
| 20260507220502 | 67 | 270 | 12.0 | 12.0 | 0.00 | 0.24 | 0.24 | 41 | 1088.8 |
| 20260507220002 | 65 | 270 | 12.0 | 12.0 | 0.00 | 0.24 | 0.24 | 41 | 1088.8 |
| 20260507215501 | 63 | 270 | 12.0 | 12.0 | 0.00 | 0.24 | 0.24 | 41 | 1088.8 |
| 20260507215001 | 61 | 270 | 12.0 | 12.0 | 0.00 | 0.24 | 0.24 | 41 | 1073.9 |
| 20260507214501 | 84 | 270 | 8.0 | 12.0 | 0.00 | 0.24 | 0.24 | 41 | 1006.2 |
| 20260507214001 | 83 | 270 | 12.0 | 12.0 | 0.00 | 0.24 | 0.24 | 39 | 1093.6 |
| 20260507213502 | 81 | 270 | 12.0 | 12.0 | 0.00 | 0.24 | 0.24 | 39 | 1093.6 |
| 20260507213002 | 79 | 270 | 12.0 | 12.0 | 0.00 | 0.24 | 0.24 | 39 | 1093.6 |
| 20260507212501 | 77 | 270 | 12.0 | 12.0 | 0.00 | 0.24 | 0.24 | 39 | 1093.6 |
| 20260507211002 | 71 | 270 | 12.0 | 12.0 | 0.00 | 0.24 | 0.24 | 39 | 1093.6 |
| 20260507210502 | 69 | 270 | 12.0 | 12.0 | 0.00 | 0.24 | 0.24 | 39 | 1093.5 |
| 20260507210002 | 67 | 270 | 12.0 | 12.0 | 0.00 | 0.24 | 0.24 | 39 | 1093.8 |
| 20260507205002 | 63 | 270 | 10.0 | 12.0 | 0.00 | 0.24 | 0.24 | 39 | 1039.4 |
| 20260507203502 | 65 | 338 | 6.0 | 6.0 | 0.00 | 0.24 | 0.24 | 40 | 1091.9 |
| 20260507203001 | 63 | 338 | 6.0 | 6.0 | 0.00 | 0.24 | 0.24 | 40 | 1022.4 |
| 20260507202502 | 71 | 338 | 6.0 | 6.0 | 0.00 | 0.24 | 0.24 | 42 | 1094.0 |
| 20260507202001 | 69 | 338 | 6.0 | 6.0 | 0.00 | 0.24 | 0.24 | 42 | 1093.9 |
| 20260507201502 | 67 | 338 | 6.0 | 6.0 | 0.00 | 0.24 | 0.24 | 42 | 1095.9 |
| 20260507201001 | 65 | 338 | 6.0 | 6.0 | 0.00 | 0.24 | 0.24 | 42 | 1056.3 |
| 20260507200502 | 63 | 225 | 3.0 | 3.0 | 0.00 | 0.24 | 0.24 | 42 | 1067.0 |
| 20260507200002 | 62 | 247 | 6.0 | 7.0 | 0.00 | 0.24 | 0.24 | 42 | 1023.5 |
| 20260507195502 | 66 | 270 | 7.0 | 7.0 | 0.00 | 0.24 | 0.24 | 44 | 1100.0 |
| 20260507194502 | 63 | 270 | 6.0 | 7.0 | 0.00 | 0.24 | 0.24 | 44 | 1022.4 |
| 20260507193502 | 66 | 270 | 7.0 | 7.0 | 0.00 | 0.24 | 0.24 | 47 | 1095.5 |
| 20260507193002 | 64 | 270 | 7.0 | 7.0 | 0.00 | 0.24 | 0.24 | 47 | 1059.7 |
| 20260507192502 | 66 | 315 | 7.0 | 7.0 | 0.00 | 0.24 | 0.24 | 50 | 1068.2 |
| 20260507192002 | 64 | 315 | 7.0 | 7.0 | 0.00 | 0.24 | 0.24 | 50 | 1067.6 |
| 20260507191502 | 64 | 295 | 6.0 | 7.0 | 0.00 | 0.24 | 0.24 | 51 | 1073.2 |
| 20260507191002 | 62 | 293 | 6.0 | 8.0 | 0.00 | 0.24 | 0.24 | 51 | 1039.4 |
| 20260507190502 | 64 | 270 | 6.0 | 8.0 | 0.00 | 0.24 | 0.24 | 49 | 1022.4 |
| 20260507190003 | 64 | 270 | 7.0 | 8.0 | 0.00 | 0.24 | 0.24 | 48 | 1014.5 |
| 20260507185502 | 75 | 270 | 5.0 | 5.0 | 0.00 | 0.24 | 0.24 | 46 | 1092.7 |
| 20260507185002 | 73 | 270 | 5.0 | 5.0 | 0.00 | 0.24 | 0.24 | 46 | 1091.8 |
| 20260507184502 | 71 | 270 | 5.0 | 5.0 | 0.00 | 0.24 | 0.24 | 46 | 1093.2 |
| 20260507184002 | 69 | 270 | 5.0 | 5.0 | 0.00 | 0.24 | 0.24 | 46 | 1090.7 |
| 20260507183502 | 67 | 270 | 5.0 | 5.0 | 0.00 | 0.24 | 0.24 | 46 | 1079.5 |
| 20260507182502 | 65 | 315 | 5.0 | 5.0 | 0.00 | 0.24 | 0.24 | 48 | 1073.6 |
| 20260507182002 | 68 | 231 | 4.0 | 5.0 | 0.00 | 0.24 | 0.24 | 50 | 1087.7 |
| 20260507181502 | 68 | 225 | 5.0 | 5.0 | 0.00 | 0.24 | 0.24 | 51 | 1087.6 |
| 20260507180502 | 64 | 225 | 5.0 | 5.0 | 0.00 | 0.24 | 0.24 | 51 | 1084.4 |
| 20260507175502 | 72 | 135 | 5.0 | 5.0 | 0.00 | 0.24 | 0.24 | 49 | 1087.3 |
| 20260507175002 | 70 | 135 | 5.0 | 5.0 | 0.00 | 0.24 | 0.24 | 49 | 1087.3 |
| 20260507174502 | 68 | 135 | 5.0 | 5.0 | 0.00 | 0.24 | 0.24 | 49 | 1087.6 |
| 20260507174002 | 66 | 135 | 5.0 | 5.0 | 0.00 | 0.24 | 0.24 | 49 | 1073.9 |
| 20260507173502 | 65 | 199 | 5.0 | 7.0 | 0.00 | 0.24 | 0.24 | 49 | 1023.1 |
| 20260507173002 | 65 | 278 | 8.0 | 9.0 | 0.00 | 0.24 | 0.24 | 49 | 1023.1 |
| 20260507171502 | 63 | 270 | 6.0 | 7.0 | 0.00 | 0.24 | 0.24 | 53 | 1027.6 |
| 20260507171002 | 63 | 270 | 5.0 | 7.0 | 0.00 | 0.24 | 0.24 | 55 | 1068.5 |
| 20260507170502 | 61 | 270 | 5.0 | 7.0 | 0.00 | 0.24 | 0.24 | 55 | 1006.2 |
| 20260507170002 | 65 | 270 | 7.0 | 7.0 | 0.00 | 0.24 | 0.24 | 52 | 1074.2 |
| 20260507165502 | 63 | 270 | 5.0 | 7.0 | 0.00 | 0.24 | 0.24 | 52 | 1009.3 |
| 20260507165002 | 82 | 270 | 7.0 | 7.0 | 0.00 | 0.24 | 0.24 | 55 | 1083.6 |
| 20260507164502 | 80 | 270 | 7.0 | 7.0 | 0.00 | 0.24 | 0.24 | 55 | 1083.6 |
| 20260507164002 | 78 | 270 | 7.0 | 7.0 | 0.00 | 0.24 | 0.24 | 55 | 1083.6 |
| 20260507163502 | 77 | 270 | 7.0 | 7.0 | 0.00 | 0.24 | 0.24 | 55 | 1083.6 |
| 20260507163003 | 75 | 270 | 7.0 | 7.0 | 0.00 | 0.24 | 0.24 | 55 | 1083.6 |
| 20260507162502 | 73 | 270 | 7.0 | 7.0 | 0.00 | 0.24 | 0.24 | 55 | 1083.6 |
| 20260507162002 | 71 | 270 | 7.0 | 7.0 | 0.00 | 0.24 | 0.24 | 55 | 1083.6 |
| 20260507161502 | 69 | 270 | 7.0 | 7.0 | 0.00 | 0.24 | 0.24 | 55 | 1083.5 |
| 20260507161002 | 67 | 270 | 7.0 | 7.0 | 0.00 | 0.24 | 0.24 | 55 | 1084.8 |
| 20260507160502 | 65 | 270 | 7.0 | 7.0 | 0.00 | 0.24 | 0.24 | 55 | 1089.0 |
| 20260507160002 | 63 | 270 | 5.0 | 7.0 | 0.00 | 0.24 | 0.24 | 55 | 1041.0 |
| 20260507155502 | 65 | 0 | 7.0 | 7.0 | 0.00 | 0.24 | 0.24 | 53 | 1074.9 |
| 20260507155002 | 63 | 0 | 6.0 | 7.0 | 0.00 | 0.24 | 0.24 | 53 | 1045.6 |
| 20260507154502 | 73 | 293 | 7.0 | 7.0 | 0.00 | 0.24 | 0.24 | 57 | 1090.1 |
| 20260507154003 | 71 | 293 | 7.0 | 7.0 | 0.00 | 0.24 | 0.24 | 57 | 1090.1 |
| 20260507153502 | 69 | 293 | 7.0 | 7.0 | 0.00 | 0.24 | 0.24 | 57 | 1090.1 |
| 20260507152513 | 65 | 293 | 7.0 | 7.0 | 0.00 | 0.24 | 0.24 | 57 | 1090.1 |
| 20260507152002 | 63 | 293 | 7.0 | 7.0 | 0.00 | 0.24 | 0.24 | 57 | 1090.1 |
| 20260507151003 | 66 | 180 | 7.0 | 7.0 | 0.00 | 0.24 | 0.24 | 62 | 1088.0 |
| 20260507150003 | 62 | 180 | 4.0 | 7.0 | 0.00 | 0.24 | 0.24 | 62 | 1024.5 |
| 20260507145502 | 62 | 203 | 7.0 | 7.0 | 0.00 | 0.24 | 0.24 | 65 | 1058.3 |
| 20260507144502 | 72 | 203 | 7.0 | 7.0 | 0.00 | 0.24 | 0.24 | 68 | 1087.3 |
| 20260507144002 | 70 | 203 | 7.0 | 7.0 | 0.00 | 0.24 | 0.24 | 68 | 1087.3 |
| 20260507143502 | 68 | 203 | 7.0 | 7.0 | 0.00 | 0.24 | 0.24 | 68 | 1087.3 |
| 20260507143002 | 66 | 203 | 7.0 | 7.0 | 0.00 | 0.24 | 0.24 | 68 | 1087.3 |
| 20260507142003 | 62 | 203 | 7.0 | 7.0 | 0.00 | 0.24 | 0.24 | 68 | 1072.9 |
| 20260507141503 | 60 | 203 | 7.0 | 7.0 | 0.00 | 0.24 | 0.24 | 68 | 1072.9 |
| 20260507141002 | 58 | 203 | 5.0 | 7.0 | 0.00 | 0.24 | 0.24 | 68 | 1040.6 |
| 20260507140503 | 64 | 338 | 7.0 | 7.0 | 0.00 | 0.24 | 0.24 | 69 | 1089.2 |
| 20260507140003 | 62 | 338 | 7.0 | 7.0 | 0.00 | 0.24 | 0.24 | 69 | 1084.7 |
| 20260507134502 | 58 | 338 | 6.0 | 7.0 | 0.00 | 0.24 | 0.24 | 68 | 1091.4 |
| 20260507134003 | 60 | 338 | 7.0 | 7.0 | 0.00 | 0.24 | 0.24 | 65 | 1075.6 |
| 20260507133502 | 58 | 338 | 5.0 | 7.0 | 0.00 | 0.24 | 0.24 | 65 | 1024.8 |
| 20260507133003 | 58 | 68 | 5.0 | 7.0 | 0.00 | 0.24 | 0.24 | 68 | 1037.8 |
| 20260507132503 | 57 | 315 | 7.0 | 7.0 | 0.00 | 0.24 | 0.24 | 70 | 1075.6 |
| 20260507132002 | 74 | 297 | 7.0 | 7.0 | 0.00 | 0.24 | 0.24 | 76 | 1088.9 |
| 20260507131503 | 72 | 293 | 7.0 | 7.0 | 0.00 | 0.24 | 0.24 | 78 | 1088.9 |
| 20260507131002 | 70 | 293 | 7.0 | 7.0 | 0.00 | 0.24 | 0.24 | 78 | 1088.9 |
| 20260507130503 | 68 | 293 | 7.0 | 7.0 | 0.00 | 0.24 | 0.24 | 78 | 1088.9 |
| 20260507125503 | 64 | 293 | 7.0 | 7.0 | 0.00 | 0.24 | 0.24 | 78 | 1088.9 |
| 20260507124503 | 60 | 293 | 7.0 | 7.0 | 0.00 | 0.24 | 0.24 | 78 | 1088.9 |
| 20260507124003 | 58 | 293 | 7.0 | 7.0 | 0.00 | 0.24 | 0.24 | 78 | 1088.9 |
| 20260507123502 | 56 | 293 | 7.0 | 7.0 | 0.00 | 0.24 | 0.24 | 78 | 1088.9 |
| 20260507122502 | 52 | 293 | 6.0 | 7.0 | 0.00 | 0.24 | 0.24 | 78 | 1025.1 |
| 20260507122002 | 53 | 293 | 7.0 | 7.0 | 0.00 | 0.24 | 0.24 | 81 | 1093.2 |
| 20260507121503 | 51 | 293 | 5.0 | 7.0 | 0.00 | 0.24 | 0.24 | 81 | 1025.5 |
| 20260507120503 | 53 | 338 | 3.0 | 3.0 | 0.24 | 0.24 | 0.24 | 83 | 1074.3 |
| 20260507115503 | 55 | 238 | 0.0 | 3.0 | 0.24 | 0.24 | 0.24 | 84 | 1090.1 |
| 20260507115003 | 54 | 203 | 0.0 | 0.0 | 0.24 | 0.24 | 0.24 | 84 | 1090.1 |
| 20260507114503 | 52 | 203 | 0.0 | 0.0 | 0.24 | 0.24 | 0.24 | 84 | 1090.0 |
| 20260507114002 | 50 | 203 | 0.0 | 0.0 | 0.24 | 0.24 | 0.24 | 84 | 1025.1 |
| 20260507113502 | 49 | 315 | 0.0 | 0.0 | 0.24 | 0.24 | 0.24 | 85 | 1025.5 |
| 20260507113003 | 49 | 293 | 0.0 | 0.0 | 0.24 | 0.24 | 0.24 | 86 | 1078.2 |
| 20260507112502 | 48 | 293 | 0.0 | 0.0 | 0.24 | 0.24 | 0.24 | 86 | 1025.5 |
| 20260507112003 | 48 | 270 | 0.0 | 0.0 | 0.24 | 0.24 | 0.24 | 86 | 1036.8 |
| 20260507111504 | 48 | 315 | 0.0 | 0.0 | 0.24 | 0.24 | 0.24 | 87 | 1025.5 |
| 20260507111002 | 47 | 90 | 0.0 | 0.0 | 0.00 | 0.00 | 0.00 | 87 | 1008.6 |
| 20260507110502 | 67 | 0 | 7.0 | 7.0 | 0.00 | 0.00 | 0.00 | 58 | 1006.6 |
| 20260507110002 | 67 | 0 | 7.0 | 7.0 | 0.00 | 0.00 | 0.00 | 58 | 1006.6 |
| 20260507105502 | 67 | 0 | 7.0 | 7.0 | 0.00 | 0.00 | 0.00 | 58 | 1006.6 |
| 20260507104502 | 67 | 0 | 7.0 | 7.0 | 0.00 | 0.00 | 0.00 | 58 | 1006.6 |
| 20260507104003 | 67 | 0 | 7.0 | 7.0 | 0.00 | 0.00 | 0.00 | 58 | 1006.6 |
| 20260507103502 | 67 | 0 | 7.0 | 7.0 | 0.00 | 0.00 | 0.00 | 58 | 1006.6 |
| 20260507103003 | 67 | 0 | 7.0 | 7.0 | 0.00 | 0.00 | 0.00 | 58 | 1006.6 |
| 20260507102503 | 67 | 0 | 7.0 | 7.0 | 0.00 | 0.00 | 0.00 | 58 | 1006.6 |
| 20260507102003 | 67 | 0 | 7.0 | 7.0 | 0.00 | 0.00 | 0.00 | 58 | 1006.6 |
| 20260507101503 | 67 | 0 | 7.0 | 7.0 | 0.00 | 0.00 | 0.00 | 58 | 1006.6 |
| 20260507101002 | 67 | 0 | 7.0 | 7.0 | 0.00 | 0.00 | 0.00 | 58 | 1006.6 |
| 20260507100502 | 67 | 0 | 7.0 | 7.0 | 0.00 | 0.00 | 0.00 | 58 | 1006.6 |
| 20260507095503 | 67 | 0 | 7.0 | 7.0 | 0.00 | 0.00 | 0.00 | 58 | 1006.6 |
| 20260507095003 | 67 | 0 | 7.0 | 7.0 | 0.00 | 0.00 | 0.00 | 58 | 1006.6 |
| 20260507093502 | 67 | 0 | 7.0 | 7.0 | 0.00 | 0.00 | 0.00 | 58 | 1006.6 |
| 20260507093003 | 67 | 0 | 7.0 | 7.0 | 0.00 | 0.00 | 0.00 | 58 | 1006.6 |
| 20260507092503 | 67 | 0 | 7.0 | 7.0 | 0.00 | 0.00 | 0.00 | 58 | 1006.6 |
| 20260507092003 | 67 | 0 | 7.0 | 7.0 | 0.00 | 0.00 | 0.00 | 58 | 1006.6 |
| 20260507091503 | 67 | 0 | 7.0 | 7.0 | 0.00 | 0.00 | 0.00 | 58 | 1006.6 |
| 20260507091002 | 67 | 0 | 7.0 | 7.0 | 0.00 | 0.00 | 0.00 | 58 | 1006.6 |
| 20260507090502 | 67 | 0 | 7.0 | 7.0 | 0.00 | 0.00 | 0.00 | 58 | 1006.6 |
| 20260507090004 | 67 | 0 | 7.0 | 7.0 | 0.00 | 0.00 | 0.00 | 58 | 1006.6 |
| 20260507085503 | 67 | 0 | 7.0 | 7.0 | 0.00 | 0.00 | 0.00 | 58 | 1006.6 |
| 20260507085003 | 67 | 0 | 7.0 | 7.0 | 0.00 | 0.00 | 0.00 | 58 | 1006.6 |
| 20260507084503 | 67 | 0 | 7.0 | 7.0 | 0.00 | 0.00 | 0.00 | 58 | 1006.6 |
| 20260507084002 | 67 | 0 | 7.0 | 7.0 | 0.00 | 0.00 | 0.00 | 58 | 1006.6 |
| 20260507083503 | 67 | 0 | 7.0 | 7.0 | 0.00 | 0.00 | 0.00 | 58 | 1006.6 |
| 20260507083003 | 67 | 0 | 7.0 | 7.0 | 0.00 | 0.00 | 0.00 | 58 | 1006.6 |
| 20260507082503 | 67 | 0 | 7.0 | 7.0 | 0.00 | 0.00 | 0.00 | 58 | 1006.6 |
| 20260507082003 | 67 | 0 | 7.0 | 7.0 | 0.00 | 0.00 | 0.00 | 58 | 1006.6 |
| 20260507081504 | 67 | 0 | 7.0 | 7.0 | 0.00 | 0.00 | 0.00 | 58 | 1006.6 |
| 20260507080503 | 67 | 0 | 7.0 | 7.0 | 0.00 | 0.00 | 0.00 | 58 | 1006.6 |
| 20260507080003 | 67 | 0 | 7.0 | 7.0 | 0.00 | 0.00 | 0.00 | 58 | 1006.6 |
| 20260507075503 | 67 | 0 | 7.0 | 7.0 | 0.00 | 0.00 | 0.00 | 58 | 1006.6 |
| 20260507075003 | 67 | 0 | 7.0 | 7.0 | 0.00 | 0.00 | 0.00 | 58 | 1006.6 |
| 20260507074003 | 67 | 0 | 7.0 | 7.0 | 0.00 | 0.00 | 0.00 | 58 | 1006.6 |
| 20260507073503 | 67 | 0 | 7.0 | 7.0 | 0.00 | 0.00 | 0.00 | 58 | 1006.6 |
| 20260507073004 | 67 | 0 | 7.0 | 7.0 | 0.00 | 0.00 | 0.00 | 58 | 1006.6 |
| 20260507072503 | 67 | 0 | 7.0 | 7.0 | 0.00 | 0.00 | 0.00 | 58 | 1006.6 |
| 20260507072003 | 67 | 0 | 7.0 | 7.0 | 0.00 | 0.00 | 0.00 | 58 | 1006.6 |
| 20260507071503 | 67 | 0 | 7.0 | 7.0 | 0.00 | 0.00 | 0.00 | 58 | 1006.6 |
| 20260507071004 | 67 | 0 | 7.0 | 7.0 | 0.00 | 0.00 | 0.00 | 58 | 1006.6 |
| 20260507070503 | 67 | 0 | 7.0 | 7.0 | 0.00 | 0.00 | 0.00 | 58 | 1006.6 |
| 20260507070004 | 67 | 0 | 7.0 | 7.0 | 0.00 | 0.00 | 0.00 | 58 | 1006.6 |
| 20260507065503 | 67 | 0 | 7.0 | 7.0 | 0.00 | 0.00 | 0.00 | 58 | 1006.6 |
| 20260507064503 | 67 | 0 | 7.0 | 7.0 | 0.00 | 0.00 | 0.00 | 58 | 1006.6 |
| 20260507063503 | 67 | 0 | 7.0 | 7.0 | 0.00 | 0.00 | 0.00 | 58 | 1006.6 |
| 20260507063003 | 67 | 0 | 7.0 | 7.0 | 0.00 | 0.00 | 0.00 | 58 | 1006.6 |
| 20260507062503 | 67 | 0 | 7.0 | 7.0 | 0.00 | 0.00 | 0.00 | 58 | 1006.6 |
| 20260507062003 | 67 | 0 | 7.0 | 7.0 | 0.00 | 0.00 | 0.00 | 58 | 1006.6 |
| 20260507061003 | 67 | 0 | 7.0 | 7.0 | 0.00 | 0.00 | 0.00 | 58 | 1006.6 |